Regional Weather Roundup
Issued by NWS Raleigh/Durham, NC

Home | Current Version | Previous Version | Text Only | Print | Product List | Glossary On
Versions: 1 2 3 4 5 6 7 8 9 10 11 12 13 14 15 16 17 18 19 20 21 22 23 24 25 26 27 28 29 30 31 32 33 34 35 36 37 38 39 40 41 42 43 44 45 46 47 48 49 50
000
ASUS42 KRAH 070110
RWRRAH
NORTH CAROLINA WEATHER ROUNDUP
NATIONAL WEATHER SERVICE RALEIGH NC
900 PM EDT WED MAY 06 2015

NOTE: "FAIR" INDICATES FEW OR NO CLOUDS BELOW 12,000 FEET WITH NO
SIGNIFICANT WEATHER AND/OR OBSTRUCTIONS TO VISIBILITY.

NCZ001-053-055-056-065-067-070200-
WESTERN NORTH CAROLINA

CITY           SKY/WX    TMP DP  RH WIND       PRES   REMARKS
ASHEVILLE      CLEAR     69  49  48 CALM      30.18S
JEFFERSON      MOCLDY    64  53  69 CALM      30.24R
MORGANTON      MOCLDY    67  60  78 CALM      30.19R
HICKORY        MOCLDY    73  54  51 CALM      30.14R
RUTHERFORDTON  CLEAR     73  53  48 SE3       30.14S
MOUNT AIRY     PTCLDY    70  62  77 CALM      30.17R
BOONE          PTCLDY    64  49  56 CALM      30.24R
$$

NCZ021-022-025-041-071-084-088-070200-
CENTRAL NORTH CAROLINA

CITY           SKY/WX    TMP DP  RH WIND       PRES   REMARKS
CHARLOTTE      MOCLDY    76  50  40 SE7       30.13R
GREENSBORO     PTCLDY    72  56  57 S6        30.14R
WINSTON-SALEM  PTCLDY    73  56  54 CALM      30.16R
RALEIGH-DURHAM MOCLDY    71  52  50 SE3       30.15R
FORT BRAGG     MOCLDY    69  55  61 NE2       30.12R
FAYETTEVILLE   MOCLDY    68  51  54 E3        30.12R
BURLINGTON     MOCLDY    73  57  57 SE3       30.14R
LAURINBURG     MOCLDY    69  51  52 NE6       30.12R
$$

NCZ011-015-027-028-043-044-047-080-103-070200-
NORTHEASTERN NORTH CAROLINA

CITY           SKY/WX    TMP DP  RH WIND       PRES   REMARKS
ROCKY MT-WILSO CLOUDY    69  54  58 SE3       30.15R
GREENVILLE     CLOUDY    68  57  68 SE3       30.16S
WASHINGTON       N/A     65  57  76 CALM      30.16R
ELIZABETH CITY CLOUDY    65  59  81 E6        30.17S
MANTEO         CLOUDY    64  61  90 NE5       30.18R
CAPE HATTERAS  CLOUDY    66  59  78 E9        30.15S
$$

NCZ078-087-090-091-093-098-101-070200-
SOUTHEASTERN NORTH CAROLINA

CITY           SKY/WX    TMP DP  RH WIND       PRES   REMARKS
LUMBERTON      MOCLDY    68  58  70 SE5       30.11S
GOLDSBORO      MOCLDY    65  55  69 E3        30.12S
KINSTON        MOCLDY    68  55  64 E5        30.15S
KENANSVILLE    CLOUDY    66  56  69 E3        30.15R
NEW BERN       CLOUDY    67  58  72 E5        30.15S
CHERRY POINT   CLOUDY    67  60  78 NE6       30.15S
BEAUFORT       CLOUDY    68  59  73 NE7       30.13S
JACKSONVILLE   CLOUDY    68  59  73 NE10      30.13S
WILMINGTON     CLOUDY    65  58  78 NE6       30.12S
$$



USA.gov is the U.S. government's official web portal to all federal, state and local government web resources and services.